This is the latest recevied weather packets stored in our database for station/object IR3AS. If no packets are shown the sender has not sent any weather packets the latest 10 day(s).
| Time | Temp. | Humidity | Pressure | Rain* | Wind** | Luminosity | Snow |
|---|---|---|---|---|---|---|---|
| 1776964885 | 8.33° C | 27% | 858.9 hPa | 0 mm | - | - | - |
| 1776964586 | 8.33° C | 28% | 858.8 hPa | 0 mm | - | - | - |
| 1776964285 | 8.89° C | 27% | 858.8 hPa | 0 mm | - | - | - |
| 1776963985 | 8.89° C | 26% | 858.5 hPa | 0 mm | - | - | - |
| 1776963685 | 9.44° C | 24% | 858.8 hPa | 0 mm | - | - | - |
| 1776963385 | 10° C | 27% | 859 hPa | 0 mm | - | - | - |
| 1776963085 | 10° C | 27% | 858.9 hPa | 0 mm | - | - | - |
| 1776962785 | 10.56° C | 26% | 858.9 hPa | 0 mm | - | - | - |
| 1776962485 | 10.56° C | 28% | 859 hPa | 0 mm | - | - | - |
| 1776962185 | 11.11° C | 26% | 859.1 hPa | 0 mm | - | - | - |
| 1776961885 | 11.11° C | 26% | 859 hPa | 0 mm | - | - | - |
| 1776961587 | 10.56° C | 26% | 859 hPa | 0 mm | - | - | - |
| 1776961285 | 10.56° C | 27% | 859 hPa | 0 mm | - | - | - |
| 1776960985 | 10.56° C | 23% | 858.8 hPa | 0 mm | - | - | - |
| 1776960685 | 10.56° C | 27% | 858.7 hPa | 0 mm | - | - | - |
| 1776960385 | 10.56° C | 28% | 859.1 hPa | 0 mm | - | - | - |
| 1776960085 | 10.56° C | 29% | 859.2 hPa | 0 mm | - | - | - |
| 1776959785 | 10° C | 29% | 859.2 hPa | 0 mm | - | - | - |
| 1776959487 | 10° C | 28% | 858.7 hPa | 0 mm | - | - | - |
| 1776959185 | 10° C | 29% | 859.1 hPa | 0 mm | - | - | - |
| 1776958886 | 9.44° C | 31% | 858.9 hPa | 0 mm | - | - | - |
| 1776958586 | 8.89° C | 30% | 858.8 hPa | 0 mm | - | - | - |
| 1776958285 | 8.33° C | 30% | 858.9 hPa | 0 mm | - | - | - |
| 1776957985 | 8.33° C | 31% | 858.8 hPa | 0 mm | - | - | - |
| 1776957685 | 7.78° C | 34% | 858.9 hPa | 0 mm | - | - | - |
* Rain latest hour (hover to see other rain measurements)
** Current wind speed in m/s (hover to see current wind gust speed)